Perry, IA

6:37 AM CST on December 08, 2016 (GMT -0600)
Perry Municipal

Weather History for KPRO - May, 2013

Change the Weather History Date:

Monday, May 20, 2013

  Actual Average Record
Temperature  
Mean Temperature 66 °F -  
Max Temperature 74 °F 74 °F 89 °F (1948)
Min Temperature 59 °F 50 °F 33 °F (1954)
Cooling Degree Days 2    
Growing Degree Days 16 (Base 50)    
Moisture  
Dew Point 57 °F    
Average Humidity 76    
Maximum Humidity 91    
Minimum Humidity 51    
Precipitation  
Precipitation 0.04 in - - ()
Sea Level Pressure  
Sea Level Pressure 29.60 in    
Wind  
Wind Speed 13 mph (SSW)    
Max Wind Speed 26 mph    
Max Gust Speed 32 mph    
Visibility 10 miles    
Events Rain    
Averages and records for this station are not official NWS values.
T = Trace of Precipitation, MM = Missing Value Source: NWS Daily Summary

Daily Weather History Graph

Daily Weather History Graph

Search for Another Location

Airport or City:

Trip Planner

Search our weather history database for the weather conditions in past years. The results will help you decide how hot, cold, wet, or windy it might be!

Date:

Astronomy

May. 20, 2013 Rise Set
Actual Time 5:51 AM CDT 8:35 PM CDT
Civil Twilight 5:19 AM CDT 9:07 PM CDT
Nautical Twilight 4:38 AM CDT 9:48 PM CDT
Astronomical Twilight 3:52 AM CDT 10:35 PM CDT
Moon 3:39 PM CDT (5/20) 2:51 AM CDT (5/20)
Length of Visible Light 15h 48m
Length of Day
14h 43m
Waxing Gibbous, 75% of the Moon is Illuminated
May 20
Waxing Gibbous
May 24
Full
May 31
Last Quarter
Jun 8
New
Jun 16
First Quarter

Hourly Weather History & Observations

Time (CDT) Temp. Dew Point Humidity Pressure Visibility Wind Dir Wind Speed Gust Speed Precip Events Conditions
12:15 AM 61.7 °F 57.9 °F 87% 29.65 in 3.0 mi SW 11.5 mph - 0.04 in Rain Light Rain
12:35 AM 61.7 °F 58.1 °F 88% 29.63 in 10.0 mi SSE 5.8 mph - 0.04 in   Overcast
12:55 AM 61.2 °F 58.1 °F 90% 29.60 in 10.0 mi SE 9.2 mph - 0.04 in   Overcast
1:15 AM 60.8 °F 57.7 °F 90% 29.59 in 10.0 mi SE 9.2 mph - N/A   Scattered Clouds
1:35 AM 60.4 °F 57.6 °F 90% 29.58 in 10.0 mi SE 10.4 mph - N/A   Clear
1:55 AM 60.3 °F 57.2 °F 90% 29.55 in 10.0 mi ESE 12.7 mph - N/A   Clear
2:15 AM 60.6 °F 57.2 °F 88% 29.56 in 10.0 mi SSE 11.5 mph - N/A   Clear
2:35 AM 60.3 °F 57.2 °F 90% 29.56 in 10.0 mi SSE 11.5 mph - N/A   Clear
2:55 AM 60.1 °F 57.2 °F 90% 29.56 in 10.0 mi South 12.7 mph - N/A   Clear
3:15 AM 59.9 °F 57.2 °F 91% 29.55 in 10.0 mi South 12.7 mph - N/A   Clear
3:35 AM 60.1 °F 57.0 °F 90% 29.56 in 10.0 mi South 10.4 mph - N/A   Clear
3:55 AM 60.1 °F 56.8 °F 89% 29.55 in 10.0 mi South 9.2 mph - N/A   Clear
4:15 AM 59.9 °F 56.8 °F 90% 29.55 in 10.0 mi South 13.8 mph - N/A   Clear
4:35 AM 59.9 °F 56.5 °F 88% 29.55 in 10.0 mi SSW 12.7 mph - N/A   Clear
5:35 AM 59.4 °F 55.8 °F 88% 29.58 in 10.0 mi South 11.5 mph - N/A   Clear
6:15 AM 59.4 °F 55.4 °F 87% 29.59 in 10.0 mi South 13.8 mph - N/A   Clear
6:35 AM 59.9 °F 54.9 °F 83% 29.59 in 10.0 mi South 12.7 mph - N/A   Clear
6:55 AM 60.4 °F 54.7 °F 81% 29.58 in 10.0 mi SSW 12.7 mph - N/A   Clear
7:15 AM 61.2 °F 55.4 °F 81% 29.58 in 10.0 mi SSW 16.1 mph 19.6 mph N/A   Clear
7:35 AM 61.9 °F 55.6 °F 80% 29.60 in 10.0 mi SSW 18.4 mph - N/A   Clear
7:55 AM 62.6 °F 56.3 °F 80% 29.61 in 10.0 mi SSW 19.6 mph - N/A   Clear
8:15 AM 63.1 °F 56.3 °F 78% 29.61 in 10.0 mi SSW 20.7 mph 24.2 mph N/A   Clear
8:35 AM 63.5 °F 55.9 °F 76% 29.62 in 10.0 mi SW 18.4 mph 23.0 mph N/A   Scattered Clouds
8:55 AM 64.2 °F 56.8 °F 77% 29.62 in 10.0 mi SSW 17.3 mph - N/A   Scattered Clouds
9:15 AM 64.8 °F 56.7 °F 75% 29.62 in 10.0 mi SW 21.9 mph 26.5 mph N/A   Mostly Cloudy
9:35 AM 64.8 °F 57.0 °F 76% 29.61 in 10.0 mi SW 23.0 mph 26.5 mph N/A   Mostly Cloudy
9:55 AM 65.8 °F 58.3 °F 77% 29.61 in 10.0 mi SSW 24.2 mph 28.8 mph N/A   Mostly Cloudy
10:15 AM 65.3 °F 57.0 °F 75% 29.62 in 10.0 mi SW 23.0 mph 31.1 mph N/A   Overcast
10:35 AM 65.3 °F 57.2 °F 75% 29.64 in 10.0 mi SW 24.2 mph 32.2 mph N/A   Overcast
10:55 AM 66.2 °F 58.3 °F 76% 29.64 in 10.0 mi SW 26.5 mph 29.9 mph N/A   Overcast
11:35 AM 67.1 °F 58.5 °F 74% 29.65 in 10.0 mi SW 23.0 mph 26.5 mph N/A   Mostly Cloudy
11:55 AM 68.2 °F 59.0 °F 72% 29.65 in 10.0 mi SW 23.0 mph 27.6 mph N/A   Mostly Cloudy
12:15 PM 68.9 °F 58.5 °F 69% 29.66 in 10.0 mi SW 19.6 mph 25.3 mph N/A   Mostly Cloudy
1:15 PM 72.0 °F 58.1 °F 62% 29.67 in 10.0 mi SW 19.6 mph 26.5 mph N/A   Mostly Cloudy
1:35 PM 72.7 °F 58.1 °F 60% 29.67 in 10.0 mi SW 19.6 mph 24.2 mph N/A   Scattered Clouds
2:15 PM 73.6 °F 57.2 °F 56% 29.66 in 10.0 mi SSW 19.6 mph - N/A   Scattered Clouds
2:41 PM 73.4 °F 57.2 °F 57% 29.66 in 10.0 mi SSW 17.3 mph 23.0 mph N/A   Scattered Clouds
3:15 PM 74.1 °F 57.7 °F 56% 29.66 in 10.0 mi SW 20.7 mph 26.5 mph N/A   Mostly Cloudy
4:35 PM 73.6 °F 57.6 °F 57% 29.64 in 10.0 mi SSW 21.9 mph - N/A   Scattered Clouds
4:55 PM 74.5 °F 56.8 °F 54% 29.63 in 10.0 mi SW 17.3 mph - N/A   Clear
5:15 PM 74.3 °F 55.0 °F 51% 29.62 in 10.0 mi SW 15.0 mph 25.3 mph N/A   Scattered Clouds
5:55 PM 74.3 °F 56.8 °F 54% 29.60 in 10.0 mi SW 16.1 mph 20.7 mph N/A   Clear
6:15 PM 74.7 °F 57.7 °F 55% 29.59 in 10.0 mi SSW 12.7 mph - N/A   Scattered Clouds
6:55 PM 74.7 °F 58.3 °F 57% 29.56 in 10.0 mi SW 12.7 mph - N/A   Clear
7:15 PM 74.5 °F 58.5 °F 57% 29.56 in 10.0 mi SW 10.4 mph - N/A   Clear
7:55 PM 72.7 °F 60.1 °F 64% 29.57 in 10.0 mi South 8.1 mph - N/A   Clear
8:15 PM 70.7 °F 59.9 °F 69% 29.57 in 10.0 mi South 10.4 mph - N/A   Scattered Clouds
8:55 PM 67.1 °F 60.3 °F 79% 29.56 in 10.0 mi South 6.9 mph - N/A   Clear
9:15 PM 67.1 °F 59.0 °F 75% 29.56 in 10.0 mi SSW 10.4 mph - N/A   Clear
9:55 PM 65.5 °F 58.1 °F 77% 29.56 in 10.0 mi SSW 9.2 mph - N/A   Clear
10:15 PM 63.9 °F 57.9 °F 81% 29.56 in 10.0 mi South 6.9 mph - N/A   Clear
10:35 PM 63.9 °F 57.7 °F 80% 29.56 in 10.0 mi SSE 6.9 mph - N/A   Clear
10:55 PM 62.8 °F 57.9 °F 84% 29.57 in 10.0 mi South 6.9 mph - N/A   Clear
11:15 PM 62.2 °F 57.4 °F 84% 29.57 in 10.0 mi South 5.8 mph - N/A   Scattered Clouds
11:35 PM 62.1 °F 57.2 °F 84% 29.57 in 10.0 mi South 6.9 mph - N/A   Scattered Clouds
11:55 PM 62.1 °F 56.8 °F 83% 29.57 in 10.0 mi South 6.9 mph - N/A   Mostly Cloudy